Flag for U.S.A. Weather past 2 weeks in San Diego, California, U.S.A.

Now
72 °F

Passing clouds.


Feels Like: 73 °F
Forecast: 70 / 78 °F
Wind: 3 mph from Northwest

Location: San Diego - North Island

Current Time: Jul 26, 2014 at 1:17:04 AM

Latest Report: Jul 26, 2014 at 12:52 AM


Visibility: 8 mi

Pressure: 29.91 "Hg

Humidity: 78%

Dew point: 65 °F

Location of San DiegoLocation

Historic Weather in San Diego — Graph

°F

San Diego temperature yesterday

Maximum temperature yesterday: 79 °F (at 11:52 AM)
Minimum temperature yesterday: 69 °F (at 2:52 AM)
Average temperature yesterday: 74 °F

Past Weeks' High & Low Weather Summary

 TemperatureHumidityPressure
High83 °F (Jul 23, 1:52 PM)84% (Jul 24, 10:52 PM)30.05 "Hg (Jul 24, 10:52 PM)
Low69 °F (Jul 25, 2:52 AM)49% (Jul 18, 11:52 AM)29.74 "Hg (Jul 24, 5:52 PM)
Average74 °F67%29.96 "Hg
* Reported Jul 11 12:52 AM — Midnight between Jul 25 and Jul 26, San Diego, Weather by CustomWeather, © 2014

Note: Actual official high and low records may vary slightly from our data, if they occured in-between our weather recording intervals... More about our weather records

Advertising

San Diego weather history for previous 24 hours

 ConditionsComfort  
Time TempWeatherWind HumidityBarometerVisibility
12:00 AM
Jul 26
72 °FPassing clouds.No wind78%29.93 "Hg8 mi
10:52 PM
Jul 25
72 °FPassing clouds.No wind78%29.92 "Hg8 mi
9:52 PM72 °FFog.5 mph78%29.90 "Hg6 mi
8:52 PM73 °FPartly cloudy.7 mph76%29.89 "Hg7 mi
7:52 PM73 °FPartly sunny.7 mph76%29.89 "Hg7 mi
6:52 PM76 °FPartly sunny.5 mph69%29.88 "Hg7 mi
5:52 PM77 °FPartly sunny.7 mph66%29.87 "Hg7 mi
4:52 PM78 °FBroken clouds.8 mph64%29.88 "Hg8 mi
3:52 PM78 °FBroken clouds.10 mph64%29.89 "Hg8 mi
2:52 PM78 °FBroken clouds.7 mph64%29.89 "Hg8 mi
1:52 PM78 °FBroken clouds.9 mph64%29.90 "Hg7 mi
12:52 PM79 °FBroken clouds.9 mph67%29.91 "Hg6 mi
11:52 AM79 °FBroken clouds.10 mph65%29.91 "Hg5 mi
10:52 AM77 °FPartly sunny.7 mph69%29.90 "Hg8 mi
9:52 AM76 °FPartly sunny.7 mph69%29.89 "Hg10 mi
8:52 AM74 °FBroken clouds.6 mph74%29.89 "Hg9 mi
7:52 AM72 °FThunderstorms. Partly sunny.No wind78%29.87 "Hg10 mi
6:52 AM70 °FPassing clouds.3 mph81%29.87 "Hg8 mi
5:52 AM69 °FPartly cloudy.3 mph84%29.86 "Hg8 mi
4:52 AM69 °FPassing clouds.9 mph84%29.87 "Hg8 mi
3:52 AM70 °FPassing clouds.9 mph81%29.86 "Hg8 mi
2:52 AM69 °FPassing clouds.12 mph84%29.86 "Hg8 mi
1:52 AM70 °FPassing clouds.13 mph81%29.87 "Hg8 mi
Weather by CustomWeather, © 2014

See weather overviewHow to use our weather pages